Charlottesville, VA

11:13 AM EDT on March 25, 2017 (GMT -0400)
Charlottesville-Albemarle

Weather History for KCHO - February, 2013

Change the Weather History Date:

Monday, February 4, 2013

  Actual Average Record
Temperature  
Mean Temperature 29 °F 36 °F  
Max Temperature 37 °F 46 °F 70 °F (1903)
Min Temperature 21 °F 27 °F 6 °F (1970)
Degree Days  
Heating Degree Days 36 29  
Month to date heating degree days 148 116  
Since 1 July heating degree days 2432 2776  
Cooling Degree Days 0 0  
Month to date cooling degree days 0 0  
Year to date cooling degree days 0 0  
Moisture  
Dew Point 13 °F    
Average Humidity 49    
Maximum Humidity 63    
Minimum Humidity 35    
Precipitation  
Precipitation 0.00 in 0.07 in 0.44 in (2006)
Month to date precipitation 0.01 0.30  
Year to date precipitation 5.06 3.07  
Sea Level Pressure  
Sea Level Pressure 29.99 in    
Wind  
Wind Speed 6 mph (SSW)    
Max Wind Speed 16 mph    
Max Gust Speed 24 mph    
Visibility 10 miles    
Events      
T = Trace of Precipitation, MM = Missing Value Source: NWS Daily Summary

Daily Weather History Graph

Daily Weather History Graph

Search for Another Location

Airport or City:

Trip Planner

Search our weather history database for the weather conditions in past years. The results will help you decide how hot, cold, wet, or windy it might be!

Date:

Astronomy

Feb. 04, 2013 Rise Set
Actual Time 7:15 AM EST 5:40 PM EST
Civil Twilight 6:47 AM EST 6:08 PM EST
Nautical Twilight 6:16 AM EST 6:39 PM EST
Astronomical Twilight 5:45 AM EST 7:10 PM EST
Moon 1:48 AM EST (2/4) 12:03 PM EST (2/4)
Length of Visible Light 11h 20m
Length of Day
10h 24m
Last Quarter, 37% of the Moon is Illuminated
Feb 4
Last Quarter
Feb 10
New
Feb 17
First Quarter
Feb 25
Full
Mar 4
Last Quarter

Hourly Weather History & Observations

Time (EST) Temp. Windchill Dew Point Humidity Pressure Visibility Wind Dir Wind Speed Gust Speed Precip Events Conditions
12:53 AM 30.9 °F 22.2 °F 9.0 °F 40% 29.97 in 10.0 mi West 10.4 mph 17.3 mph N/A   Clear
1:53 AM 30.0 °F 22.4 °F 8.1 °F 40% 29.97 in 10.0 mi WNW 8.1 mph 18.4 mph N/A   Clear
2:53 AM 28.9 °F 25.2 °F 8.1 °F 41% 29.98 in 10.0 mi Variable 3.5 mph - N/A   Clear
3:53 AM 28.0 °F - 7.0 °F 41% 29.98 in 10.0 mi Calm Calm - N/A   Clear
6:53 AM 25.0 °F - 9.0 °F 51% 30.06 in 10.0 mi Calm Calm - N/A   Clear
7:53 AM 24.1 °F - 10.9 °F 57% 30.08 in 10.0 mi Calm Calm - N/A   Clear
8:53 AM 27.0 °F - 12.0 °F 53% 30.10 in 10.0 mi Calm Calm - N/A   Clear
9:53 AM 30.9 °F 27.5 °F 12.0 °F 46% 30.09 in 10.0 mi SSW 3.5 mph - N/A   Clear
10:53 AM 32.0 °F 25.6 °F 10.9 °F 42% 30.08 in 10.0 mi SW 6.9 mph - N/A   Clear
11:53 AM 33.1 °F 28.7 °F 10.9 °F 40% 30.07 in 10.0 mi Variable 4.6 mph - N/A   Clear
12:53 PM 35.1 °F 27.9 °F 10.9 °F 37% 30.03 in 10.0 mi SSW 9.2 mph - N/A   Clear
1:53 PM 36.0 °F 28.0 °F 12.9 °F 39% 29.99 in 10.0 mi South 11.5 mph - N/A   Clear
2:53 PM 36.0 °F 27.5 °F 14.0 °F 41% 29.98 in 10.0 mi SSW 12.7 mph - N/A   Clear
3:53 PM 36.0 °F 28.0 °F 15.1 °F 43% 29.98 in 10.0 mi SSW 11.5 mph - N/A   Clear
4:53 PM 35.1 °F 25.9 °F 16.0 °F 46% 29.95 in 10.0 mi South 13.8 mph - N/A   Partly Cloudy
5:53 PM 34.0 °F 27.2 °F 16.0 °F 48% 29.95 in 10.0 mi SSW 8.1 mph - N/A   Clear
6:53 PM 35.1 °F 30.1 °F 17.1 °F 48% 29.97 in 10.0 mi SSW 5.8 mph - N/A   Scattered Clouds
7:53 PM 34.0 °F 29.8 °F 18.0 °F 52% 29.96 in 10.0 mi SSW 4.6 mph - N/A   Mostly Cloudy
8:53 PM 34.0 °F 31.0 °F 17.1 °F 50% 29.94 in 10.0 mi Variable 3.5 mph - N/A   Scattered Clouds
9:53 PM 32.0 °F 24.8 °F 18.0 °F 56% 29.92 in 10.0 mi SSW 8.1 mph - N/A   Partly Cloudy
10:53 PM 30.9 °F 24.3 °F 19.0 °F 61% 29.91 in 10.0 mi SSW 6.9 mph - N/A   Mostly Cloudy
11:53 PM 30.9 °F 24.3 °F 18.0 °F 59% 29.90 in 10.0 mi South 6.9 mph - N/A   Mostly Cloudy